This demonstration page uses our WeatherBlox Daily Observations layout. Learn more.

Left ArrowRight Arrow

Hourly Observations for February 13, 2016

Temp ( °F °C ) Dew Point ( °F °C ) Humidity (%) Winds ( mph kmh ) Pressure ( in mb ) Visibility ( mi km ) Precip ( " mm )
12:14 am 00:14 Partly Cloudy 16 -9 1 -17 53 53 NW 14 22 30.39 1029 10 16 N/A
12:34 am 00:34 Clear 16 -9 1 -17 53 53 NNW 13 20 30.39 1029 10 16 N/A
12:55 am 00:55 Partly Cloudy 14 -10 1 -17 57 57 NW 10 17 30.42 1030 10 16 N/A
1:14 am 01:14 Partly Cloudy 14 -10 3 -16 62 62 NNW 16 26 30.42 1030 10 16 N/A
1:34 am 01:34 Partly Cloudy 14 -10 3 -16 62 62 NNW 13 20 30.42 1030 10 16 N/A
1:55 am 01:55 Partly Cloudy 12 -11 1 -17 62 62 NNW 20 31 30.48 1032 10 16 N/A
2:14 am 02:14 Clear 12 -11 1 -17 62 62 NW 15 24 30.48 1032 10 16 N/A
2:35 am 02:35 Clear 12 -11 1 -17 62 62 NW 14 22 30.48 1032 10 16 N/A
2:54 am 02:54 Clear 10 -12 1 -17 67 67 NW 15 24 30.48 1032 10 16 N/A
3:14 am 03:14 Clear 10 -12 1 -17 67 67 NW 13 20 30.50 1033 10 16 N/A
3:35 am 03:35 Clear 10 -12 N/A 61 61 NW 14 22 30.50 1033 10 16 N/A
3:54 am 03:54 Clear 10 -12 N/A 61 61 NW 13 20 30.50 1033 10 16 N/A
4:14 am 04:14 Clear 10 -12 N/A 61 61 NW 9 15 30.50 1033 10 16 N/A
4:35 am 04:35 Clear 10 -12 N/A 61 61 NNW 17 28 30.53 1034 10 16 N/A
4:54 am 04:54 Clear 9 -13 N/A 66 66 NW 9 15 30.53 1034 10 16 N/A
5:14 am 05:14 Clear 9 -13 N/A 66 66 NW 12 19 30.53 1034 10 16 N/A
5:34 am 05:34 Clear 9 -13 N/A 66 66 NW 12 19 30.53 1034 10 16 N/A
5:54 am 05:54 Clear 9 -13 N/A 66 66 NW 8 13 30.56 1035 10 16 N/A
6:15 am 06:15 Clear 9 -13 N/A 66 66 NW 10 17 30.56 1035 10 16 N/A
6:34 am 06:34 Clear 7 -14 N/A 72 72 NW 10 17 30.56 1035 10 16 N/A
6:54 am 06:54 Clear 7 -14 N/A 72 72 NW 10 17 30.59 1036 10 16 N/A
7:15 am 07:15 Clear 7 -14 -2 -19 66 66 NW 10 17 30.59 1036 10 16 N/A
7:34 am 07:34 Clear 7 -14 -2 -19 66 66 NW 9 15 30.59 1036 10 16 N/A
7:54 am 07:54 Sunny 7 -14 -2 -19 66 66 NW 8 13 30.62 1037 10 16 N/A
8:15 am 08:15 Sunny 7 -14 -2 -19 66 66 NNW 9 15 30.62 1037 10 16 N/A
8:34 am 08:34 Sunny 9 -13 N/A 66 66 NW 10 17 30.62 1037 10 16 N/A
8:54 am 08:54 Sunny 9 -13 -2 -19 61 61 NW 10 17 30.62 1037 10 16 N/A
9:14 am 09:14 Sunny 10 -12 N/A 61 61 NNW 9 15 30.62 1037 10 16 N/A
9:34 am 09:34 Sunny 10 -12 N/A 61 61 NNW 12 19 30.62 1037 10 16 N/A
9:55 am 09:55 Sunny 12 -11 N/A 57 57 NW 9 15 30.65 1038 10 16 N/A
10:14 am 10:14 Sunny 12 -11 N/A 57 57 NNW 9 15 30.65 1038 10 16 N/A
10:34 am 10:34 Sunny 14 -10 N/A 52 52 NNW 9 15 30.65 1038 10 16 N/A
10:55 am 10:55 Sunny 14 -10 N/A 52 52 NNW 9 15 30.65 1038 10 16 N/A
11:14 am 11:14 Sunny 16 -9 N/A 48 48 WNW 8 13 30.65 1038 10 16 N/A
11:34 am 11:34 Sunny 16 -9 N/A 48 48 WNW 3 6 30.65 1038 10 16 N/A
11:55 am 11:55 Partly Cloudy 18 -8 1 -17 49 49 WNW 9 15 30.62 1037 10 16 N/A
12:14 pm 12:14 Mostly Cloudy 16 -9 N/A 48 48 NW 7 11 30.65 1038 10 16 N/A
12:34 pm 12:34 Mostly Cloudy 16 -9 N/A 48 48 W 8 13 30.65 1038 10 16 N/A
12:55 pm 12:55 Mostly Cloudy 16 -9 N/A 48 48 W 10 17 30.62 1037 10 16 N/A
1:14 pm 13:14 Partly Cloudy 18 -8 N/A 45 45 WNW 9 15 30.59 1036 10 16 N/A
1:35 pm 13:35 Partly Cloudy 18 -8 N/A 45 45 NW 12 19 30.59 1036 10 16 N/A
1:54 pm 13:54 Partly Cloudy 19 -7 N/A 42 42 WNW 9 15 30.59 1036 10 16 N/A
2:15 pm 14:15 Sunny 19 -7 -2 -19 38 38 WNW 6 9 30.59 1036 10 16 N/A
2:34 pm 14:34 Sunny 19 -7 -2 -19 38 38 NW 7 11 30.56 1035 10 16 N/A
2:55 pm 14:55 Sunny 19 -7 -2 -19 38 38 WNW 10 17 30.56 1035 10 16 N/A
3:14 pm 15:14 Sunny 19 -7 -4 -20 35 35 NNW 14 22 30.56 1035 10 16 N/A
3:34 pm 15:34 Sunny 19 -7 -2 -19 38 38 NNW 10 17 30.56 1035 10 16 N/A
3:55 pm 15:55 Sunny 19 -7 -4 -20 35 35 WNW 8 13 30.56 1035 10 16 N/A
4:14 pm 16:14 Sunny 19 -7 -4 -20 35 35 W 8 13 30.56 1035 10 16 N/A
4:34 pm 16:34 Sunny 19 -7 -4 -20 35 35 NW 8 13 30.56 1035 10 16 N/A
4:55 pm 16:55 Sunny 18 -8 -6 -21 35 35 NW 8 13 30.56 1035 10 16 N/A
5:14 pm 17:14 Sunny 18 -8 -6 -21 35 35 NW 6 9 30.56 1035 10 16 N/A
5:34 pm 17:34 Sunny 18 -8 -4 -20 38 38 NW 7 11 30.56 1035 10 16 N/A
5:54 pm 17:54 Sunny 16 -9 -4 -20 41 41 NNW 7 11 30.59 1036 10 16 N/A
6:15 pm 18:15 Sunny 14 -10 -2 -19 48 48 NW 5 7 30.59 1036 10 16 N/A
6:34 pm 18:34 Clear 14 -10 -2 -19 48 48 NNW 5 7 30.59 1036 10 16 N/A
6:54 pm 18:54 Clear 14 -10 N/A 52 52 NNW 3 6 30.59 1036 10 16 N/A
7:15 pm 19:15 Clear 14 -10 N/A 52 52 N N/A 30.59 1036 10 16 N/A
7:34 pm 19:34 Clear 14 -10 1 -17 57 57 N 3 6 30.59 1036 10 16 N/A
7:54 pm 19:54 Clear 12 -11 3 -16 67 67 NNE 3 6 30.59 1036 10 16 N/A
8:15 pm 20:15 Clear 12 -11 1 -17 62 62 N N/A 30.59 1036 10 16 N/A
8:34 pm 20:34 Clear 12 -11 3 -16 67 67 NNE 3 6 30.59 1036 10 16 N/A
8:54 pm 20:54 Clear 10 -12 5 -15 79 79 N N/A 30.59 1036 10 16 N/A
9:15 pm 21:15 Clear 10 -12 5 -15 79 79 N N/A 30.59 1036 10 16 N/A
9:34 pm 21:34 Clear 12 -11 3 -16 67 67 N N/A 30.59 1036 10 16 N/A
9:54 pm 21:54 Clear 12 -11 3 -16 67 67 N N/A 30.59 1036 10 16 N/A
10:15 pm 22:15 Clear 12 -11 5 -15 73 73 N N/A 30.56 1035 10 16 N/A
10:34 pm 22:34 Clear 12 -11 3 -16 67 67 N N/A 30.56 1035 10 16 N/A
10:54 pm 22:54 Clear 10 -12 3 -16 72 72 N N/A 30.56 1035 10 16 N/A
11:15 pm 23:15 Clear 10 -12 3 -16 72 72 ENE 3 6 30.56 1035 10 16 N/A
11:34 pm 23:34 Clear 10 -12 3 -16 72 72 N N/A 30.56 1035 10 16 N/A
11:54 pm 23:54 Clear 10 -12 3 -16 72 72 E 5 7 30.53 1034 10 16 N/A

Powered by AerisWeather